Phenix City, Alabama, United States (36867)
Lat: 32.47N, Lon: 85W
Wx Zone: ALZ048
Local Info
Past Weather Observations for Yesterday

NOTE: This archive is for the closest National Weather Service station to Phenix City. Information may differ from the station used for current weather conditions.

Time Weather Temperature Dewpoint Humidity Pressure Winds Precip Visibility
23:51
Overcast
61°F / 16°C 45°F / 7°C 55% 30.27 in
(1025 mb)
E 6.9 mph
(E 11 kph)
- 10SM
22:51
Mostly Cloudy
59°F / 15°C 46°F / 8°C 63% 30.27 in
(1025 mb)
ESE 6.9 mph
(ESE 11 kph)
- 10SM
21:51
Clear
61°F / 16°C 46°F / 8°C 59% 30.27 in
(1025 mb)
ESE 6.9 mph
(ESE 11 kph)
- 10SM
20:51
Overcast
63°F / 17°C 46°F / 8°C 56% 30.27 in
(1025 mb)
E 9.2 mph
(E 15 kph)
- 10SM
19:51
Overcast
61°F / 16°C 46°F / 8°C 59% 30.27 in
(1025 mb)
E 4.6 mph
(E 7 kph)
- 10SM
18:51
Mostly Cloudy
63°F / 17°C 46°F / 8°C 56% 30.27 in
(1025 mb)
E 5.8 mph
(E 9 kph)
- 10SM
17:51
Partly Cloudy
64°F / 18°C 46°F / 8°C 52% 30.27 in
(1025 mb)
E 8.1 mph
(E 13 kph)
- 10SM
16:51
Clear
64°F / 18°C 46°F / 8°C 52% 30.27 in
(1025 mb)
SE 10.4 mph
(SE 17 kph)
- 10SM
15:51
Partly Cloudy
66°F / 19°C 46°F / 8°C 49% 30.27 in
(1025 mb)
E 11.5 mph
(E 19 kph)
- 10SM
14:51
Mostly Cloudy
66°F / 19°C 46°F / 8°C 49% 30.3 in
(1026 mb)
SSE 11.5 mph
(SSE 19 kph)
- 10SM
13:51
Overcast
63°F / 17°C 43°F / 6°C 49% 30.3 in
(1026 mb)
E 11.5 mph
(E 19 kph)
- 10SM
13:11
Overcast
61°F / 16°C 41°F / 5°C 48% 30.33 in
(1027 mb)
E 11.5 mph
(E 19 kph)
- 10SM
12:51
Overcast
61°F / 16°C 39°F / 4°C 45% 30.36 in
(1028 mb)
E 9.2 mph
(E 15 kph)
- 10SM
12:42
Overcast
61°F / 16°C 39°F / 4°C 45% 30.36 in
(1028 mb)
E 11.5 mph
(E 19 kph)
- 10SM
11:51
Overcast
59°F / 15°C 39°F / 4°C 48% 30.36 in
(1028 mb)
E 16.1 mph
(E 26 kph)
- 10SM
10:51
Mostly Cloudy
57°F / 14°C 39°F / 4°C 51% 30.39 in
(1029 mb)
SE 12.7 mph
(SE 20 kph)
- 10SM
10:02
Mostly Cloudy
55°F / 13°C 37°F / 3°C 51% 30.39 in
(1029 mb)
SE 12.7 mph
(SE 20 kph)
- 10SM
09:51
Overcast
57°F / 14°C 37°F / 3°C 48% 30.39 in
(1029 mb)
ESE 15 mph
(ESE 24 kph)
- 10SM
08:51
Clear
54°F / 12°C 37°F / 3°C 54% 30.36 in
(1028 mb)
SE 17.3 mph
(SE 28 kph)
- 10SM
07:51
Mostly Cloudy
48°F / 9°C 36°F / 2°C 62% 30.36 in
(1028 mb)
E 15 mph
(E 24 kph)
- 10SM
06:51
Overcast
46°F / 8°C 36°F / 2°C 66% 30.36 in
(1028 mb)
ESE 10.4 mph
(ESE 17 kph)
- 10SM
05:51
Overcast
46°F / 8°C 37°F / 3°C 71% 30.33 in
(1027 mb)
ESE 12.7 mph
(ESE 20 kph)
- 10SM
04:51
Mostly Cloudy
46°F / 8°C 39°F / 4°C 76% 30.3 in
(1026 mb)
ESE 13.8 mph
(ESE 22 kph)
- 10SM
03:51
Mostly Cloudy
46°F / 8°C 39°F / 4°C 76% 30.3 in
(1026 mb)
E 9.2 mph
(E 15 kph)
- 10SM
02:51
Clear
45°F / 7°C 37°F / 3°C 76% 30.3 in
(1026 mb)
ESE 8.1 mph
(ESE 13 kph)
- 10SM
01:51
Clear
46°F / 8°C 37°F / 3°C 71% 30.3 in
(1026 mb)
ESE 9.2 mph
(ESE 15 kph)
- 10SM
00:51
Clear
46°F / 8°C 36°F / 2°C 66% 30.3 in
(1026 mb)
E 6.9 mph
(E 11 kph)
- 10SM
Time Weather Temperature Dewpoint Humidity Pressure Winds Precip Visibility


Weather for websites

WeatherForYou.com, LLC is not responsible for any damages or problems caused by this service. Current weather conditions are obtained from the closest station including government and personal stations which may have varying degrees of accuracy. Weather forecasts are derived from the NOAA NDFD. Like all things, this site belongs to Jesus Christ... He just trusts me to maintain it. If you have any questions or comments email webmaster@weatherforyou.com

Copyright © 2014, WeatherForYou.com LLC. All rights reserved.